Mitchell Lake Weather Center

Moon Phase Calendar



Mitchell Lake Water Level
Online Cameras

 


      

Current Conditions in Clanton
4/17/2024 11:39:34 PM

68°F
Feels Like 69
Clouds
Humidity
88%
Pressure
30.06"
Wind
2 mph (SW)
Dew Point
65°F
UV Index
0/10 (Low)
Visibility
6 mi

Hourly Forecast

Date & Time Wed, Apr 17
11:00 PM
Thu, Apr 18
12:00 AM
Thu, Apr 18
1:00 AM
Thu, Apr 18
2:00 AM
Thu, Apr 18
3:00 AM
Thu, Apr 18
4:00 AM
Thu, Apr 18
5:00 AM
Thu, Apr 18
6:00 AM
Thu, Apr 18
7:00 AM
Thu, Apr 18
8:00 AM
Thu, Apr 18
9:00 AM
Thu, Apr 18
10:00 AM
Thu, Apr 18
11:00 AM
Thu, Apr 18
12:00 PM
Thu, Apr 18
1:00 PM
Thu, Apr 18
2:00 PM
Thu, Apr 18
3:00 PM
Thu, Apr 18
4:00 PM
Thu, Apr 18
5:00 PM
Thu, Apr 18
6:00 PM
Thu, Apr 18
7:00 PM
Thu, Apr 18
8:00 PM
Thu, Apr 18
9:00 PM
Thu, Apr 18
10:00 PM
Thu, Apr 18
11:00 PM
Fri, Apr 19
12:00 AM
Fri, Apr 19
1:00 AM
Fri, Apr 19
2:00 AM
Fri, Apr 19
3:00 AM
Fri, Apr 19
4:00 AM
Fri, Apr 19
5:00 AM
Fri, Apr 19
6:00 AM
Fri, Apr 19
7:00 AM
Fri, Apr 19
8:00 AM
Fri, Apr 19
9:00 AM
Fri, Apr 19
10:00 AM
Fri, Apr 19
11:00 AM
Fri, Apr 19
12:00 PM
Fri, Apr 19
1:00 PM
Fri, Apr 19
2:00 PM
Fri, Apr 19
3:00 PM
Fri, Apr 19
4:00 PM
Fri, Apr 19
5:00 PM
Fri, Apr 19
6:00 PM
Fri, Apr 19
7:00 PM
Fri, Apr 19
8:00 PM
Fri, Apr 19
9:00 PM
Fri, Apr 19
10:00 PM
Condition
Rain

Clouds

Clouds

Clouds

Clouds

Clouds

Clouds

Clouds

Clouds

Clouds

Clouds

Clouds

Clouds

Clouds

Clouds

Clouds

Clouds

Clouds

Clouds

Clouds

Clouds

Rain

Clouds

Clouds

Clouds

Clouds

Clouds

Clear

Clear

Clear

Clouds

Clouds

Clouds

Clouds

Clouds

Clouds

Clouds

Clouds

Clouds

Clouds

Clouds

Clouds

Clouds

Rain

Clouds

Clouds

Rain

Clouds
Temperature 68°F68°F68°F67°F66°F64°F63°F62°F64°F68°F72°F76°F79°F80°F80°F78°F80°F79°F79°F75°F72°F67°F67°F67°F66°F65°F64°F64°F64°F63°F63°F63°F64°F67°F71°F75°F79°F82°F84°F86°F85°F84°F79°F74°F72°F70°F67°F66°F
Feels Like 69°F69°F69°F68°F67°F65°F63°F63°F64°F68°F72°F77°F79°F82°F82°F78°F80°F79°F79°F75°F72°F68°F68°F68°F66°F66°F65°F64°F64°F64°F64°F63°F64°F67°F71°F76°F79°F83°F85°F86°F86°F85°F79°F75°F73°F71°F68°F66°F
Cloudiness 100%100%100%100%100%100%100%100%98%100%100%99%99%99%99%100%100%100%99%99%100%100%100%100%100%100%94%0%1%1%12%20%26%100%97%99%90%83%76%46%61%63%74%79%83%52%51%67%
Visibility 6 mi6 mi6 mi6 mi6 mi6 mi6 mi6 mi6 mi6 mi6 mi6 mi6 mi6 mi6 mi6 mi6 mi6 mi6 mi6 mi6 mi6 mi6 mi6 mi6 mi6 mi6 mi6 mi6 mi6 mi6 mi6 mi6 mi6 mi6 mi6 mi6 mi6 mi6 mi6 mi6 mi6 mi6 mi6 mi6 mi6 mi6 mi6 mi
Precipitation 84%72%89%7%0%0%0%0%0%0%0%0%0%0%0%0%0%0%0%0%0%100%80%80%80%80%79%0%0%0%0%0%0%0%0%0%0%0%0%0%0%0%0%55%52%4%46%51%
Humidity 87%88%88%89%90%92%94%97%95%88%78%66%58%56%56%60%57%57%58%70%77%93%93%93%94%94%95%96%97%97%98%98%97%93%85%74%62%56%50%45%47%52%62%76%85%94%97%97%
Dew Point 64°F65°F64°F64°F63°F62°F61°F61°F62°F64°F64°F64°F63°F63°F63°F63°F63°F62°F62°F65°F64°F65°F65°F65°F64°F63°F63°F63°F63°F63°F62°F62°F63°F64°F66°F66°F65°F64°F63°F62°F63°F64°F65°F66°F67°F68°F66°F64°F
Pressure 30.06"30.06"30.06"30.06"30.06"30.06"30.09"30.09"30.09"30.09"30.09"30.09"30.09"30.06"30.06"30.03"30"30"30.03"30.03"30.03"30.03"30.03"30"30.03"30.03"30.03"30.03"30.03"30.03"30.03"30.06"30.06"30.09"30.09"30.09"30.06"30.03"30.03"30"29.97"29.97"29.97"30"30"30.03"30.06"30.06"
Wind Speed 2 mph2 mph1.2 mph2.7 mph0.9 mph2.6 mph3.6 mph4.3 mph2.4 mph1.9 mph1.9 mph2.2 mph4 mph5.7 mph8.2 mph7.2 mph8.7 mph6.6 mph7.4 mph4.3 mph3.2 mph4.5 mph4.6 mph2.6 mph4.7 mph3.8 mph4.2 mph4.1 mph4.2 mph4.1 mph4.4 mph4.7 mph4.6 mph4.8 mph6 mph5.7 mph6 mph6.2 mph6.3 mph6.9 mph6.9 mph6.4 mph5.2 mph3.9 mph6.3 mph8.5 mph8.4 mph7 mph
Wind
Direction
249°
WSW
227°
SW
220°
SW
208°
SSW
164°
SSE
227°
SW
224°
SW
215°
SW
214°
SW
247°
WSW
221°
SW
175°
S
215°
SW
203°
SSW
211°
SSW
197°
SSW
163°
SSE
175°
S
225°
SW
207°
SSW
211°
SSW
207°
SSW
198°
SSW
167°
SSE
247°
WSW
237°
WSW
238°
WSW
223°
SW
215°
SW
238°
WSW
228°
SW
234°
SW
235°
SW
266°
W
257°
WSW
277°
W
278°
W
272°
W
269°
W
272°
W
268°
W
255°
WSW
247°
WSW
286°
WNW
328°
NNW
354°
N
12°
NNE

N

Daily Forecast

Date High Low Precip. Humidity
Today
Apr 17

Rain
80 °F
59 °F
84%
49%
Thursday
Apr 18

Rain
80 °F
62 °F
100%
56%
Friday
Apr 19

Rain
86 °F
63 °F
80%
56%
Saturday
Apr 20

Rain
80 °F
60 °F
100%
69%
Sunday
Apr 21

Rain
58 °F
50 °F
100%
95%
Monday
Apr 22

Clear
68 °F
46 °F
0%
37%
Tuesday
Apr 23

Clear
74 °F
46 °F
0%
41%
Wednesday
Apr 24

Clear
79 °F
53 °F
0%
40%
Thursday
Apr 25

Clouds
82 °F
59 °F
0%
39%
Friday
Apr 26

Rain
80 °F
61 °F
100%
50%
Saturday
Apr 27

Rain
74 °F
62 °F
100%
88%
Sunday
Apr 28

Clouds
76 °F
61 °F
0%
56%
Monday
Apr 29

Clear
81 °F
61 °F
0%
48%
Tuesday
Apr 30

Clouds
85 °F
62 °F
0%
44%
Wednesday
May 1

Clear
87 °F
63 °F
0%
40%
Thursday
May 2

Clouds
87 °F
65 °F
0%
40%

Temperature 8-14 Day Outlook



Precipitation 8-14 Day Outlook




Quick Links
Mitchell Lake News
Mitchell Lake Photos
Mitchell Lake Videos




About Us
Contact Us
Site Map
Search Site
Advertise With Us
   
www.LakeMitchell.com
THE MITCHELL LAKE WEBSITE

Copyright 2024, Lakes Online
Privacy    |    Legal